Wheeler AAF, HI

3:21 AM HST on October 17, 2017 (GMT -1000)
Wheeler Army Air Field

Weather History for PHHI - May, 2014

Change the Weather History Date:

Wednesday, May 7, 2014

  Actual Average Record
Temperature  
Mean Temperature 72 °F -  
Max Temperature 78 °F 76 °F 84 °F (2004)
Min Temperature 65 °F 63 °F 62 °F (1999)
Cooling Degree Days 6    
Growing Degree Days 22 (Base 50)    
Moisture  
Dew Point 65 °F    
Average Humidity 77    
Maximum Humidity 93    
Minimum Humidity 57    
Precipitation  
Precipitation 0.00 in - - ()
Sea Level Pressure  
Sea Level Pressure 30.08 in    
Wind  
Wind Speed 4 mph (NNW)    
Max Wind Speed 8 mph    
Max Gust Speed -    
Visibility 10 miles    
Events Rain    
Averages and records for this station are not official NWS values.
T = Trace of Precipitation, MM = Missing Value Source: NWS Daily Summary

Daily Weather History Graph

Daily Weather History Graph

Search for Another Location

Airport or City:

Trip Planner

Search our weather history database for the weather conditions in past years. The results will help you decide how hot, cold, wet, or windy it might be!

Date:

Astronomy

May. 07, 2014 Rise Set
Actual Time 5:57 AM HST 7:00 PM HST
Civil Twilight 5:33 AM HST 7:23 PM HST
Nautical Twilight 5:05 AM HST 7:51 PM HST
Astronomical Twilight 4:37 AM HST 8:20 PM HST
Moon 1:04 PM HST (5/7) 1:11 AM HST (5/7)
Length of Visible Light 13h 49m
Length of Day
13h 02m
First Quarter, 57% of the Moon is Illuminated
May 7
First Quarter
May 14
Full
May 21
Last Quarter
May 28
New
Jun 5
First Quarter

Hourly Weather History & Observations

Time (HST) Temp. Dew Point Humidity Pressure Visibility Wind Dir Wind Speed Gust Speed Precip Events Conditions
12:58 AM 68.2 °F 64.0 °F 87% 30.06 in 10.0 mi Variable 1.2 mph - N/A   Clear
1:58 AM 67.5 °F 64.2 °F 89% 30.06 in 10.0 mi East 1.2 mph - N/A   Clear
2:58 AM 66.4 °F 63.3 °F 90% 30.06 in 10.0 mi WNW 2.3 mph - N/A   Clear
3:58 AM 66.4 °F 63.9 °F 92% 30.06 in 10.0 mi WNW 4.6 mph - N/A   Partly Cloudy
4:58 AM 65.1 °F 63.0 °F 93% 30.07 in 10.0 mi WNW 5.8 mph - N/A   Scattered Clouds
5:58 AM 67.8 °F 64.2 °F 88% 30.08 in 10.0 mi NW 4.6 mph - N/A   Overcast
6:58 AM 68.0 °F 64.8 °F 89% 30.09 in 10.0 mi Calm Calm - N/A   Clear
7:58 AM 74.5 °F 67.3 °F 78% 30.09 in 10.0 mi SE 3.5 mph - N/A   Partly Cloudy
10:48 AM 73.4 °F 66.2 °F 78% 30.13 in 10.0 mi SSW 8.1 mph - N/A   Overcast
10:58 AM 73.2 °F 64.4 °F 74% 30.11 in 10.0 mi SSW 5.8 mph - N/A   Overcast
11:56 AM 78.8 °F 62.6 °F 57% 30.11 in 10.0 mi SSW 5.8 mph - N/A   Light Drizzle
11:58 AM 78.8 °F 62.6 °F 57% 30.09 in 10.0 mi South 2.3 mph - N/A   Light Drizzle
12:06 PM 78.8 °F 62.6 °F 57% 30.11 in 10.0 mi Calm Calm - N/A   Overcast
12:58 PM 77.7 °F 64.8 °F 64% 30.08 in 10.0 mi Variable 3.5 mph - 0.00 in   Overcast
1:58 PM 78.6 °F 65.1 °F 63% 30.06 in 10.0 mi Variable 2.3 mph - N/A   Mostly Cloudy
2:46 PM 77.0 °F 66.2 °F 69% 30.07 in 10.0 mi NNW 6.9 mph - N/A   Light Drizzle
2:58 PM 76.3 °F 66.0 °F 70% 30.05 in 10.0 mi North 6.9 mph - 0.00 in   Light Drizzle
3:14 PM 77.0 °F 66.2 °F 69% 30.06 in 10.0 mi North 6.9 mph - N/A   Overcast
3:58 PM 76.5 °F 65.5 °F 69% 30.03 in 10.0 mi North 8.1 mph - 0.00 in   Mostly Cloudy
4:24 PM 77.0 °F 66.2 °F 69% 30.05 in 10.0 mi NNW 5.8 mph - N/A   Light Drizzle
4:47 PM 75.2 °F 66.2 °F 73% 30.05 in 10.0 mi NNW 8.1 mph - N/A   Overcast
4:58 PM 75.9 °F 65.3 °F 70% 30.04 in 10.0 mi NNW 5.8 mph - 0.00 in   Overcast
5:13 PM 75.2 °F 66.2 °F 73% 30.06 in 10.0 mi WNW 6.9 mph - N/A Rain Light Rain
5:18 PM 75.2 °F 66.2 °F 73% 30.06 in 10.0 mi NW 5.8 mph - N/A   Light Drizzle
5:23 PM 75.2 °F 66.2 °F 73% 30.06 in 10.0 mi NW 5.8 mph - N/A   Overcast
5:38 PM 75.2 °F 66.2 °F 73% 30.06 in 10.0 mi NNE 4.6 mph - N/A   Overcast
5:58 PM 73.9 °F 67.3 °F 80% 30.05 in 10.0 mi NE 5.8 mph - 0.00 in   Overcast
6:49 PM 73.4 °F 66.2 °F 78% 30.08 in 10.0 mi East 3.5 mph - N/A   Light Drizzle
6:58 PM 73.4 °F 66.9 °F 80% 30.07 in 10.0 mi NE 2.3 mph - 0.00 in   Light Drizzle
7:15 PM 73.4 °F 66.2 °F 78% 30.09 in 10.0 mi North 2.3 mph - N/A   Overcast
7:45 PM 73.4 °F 66.2 °F 78% 30.10 in 9.0 mi NNW 3.5 mph - N/A   Overcast
7:58 PM 72.5 °F 66.6 °F 82% 30.08 in 10.0 mi WNW 2.3 mph - 0.00 in   Overcast
8:58 PM 71.8 °F 66.4 °F 83% 30.10 in 10.0 mi NNW 3.5 mph - N/A   Clear
9:58 PM 70.2 °F 66.2 °F 87% 30.11 in 10.0 mi WNW 4.6 mph - N/A   Clear
10:58 PM 68.4 °F 64.9 °F 89% 30.11 in 10.0 mi NW 4.6 mph - N/A   Overcast
11:58 PM 70.0 °F 65.5 °F 86% 30.08 in 10.0 mi North 4.6 mph - N/A   Overcast